TimeEST,TemperatureF,Dew PointF,Humidity,Sea Level PressureIn,VisibilityMPH,Wind Direction,Wind SpeedMPH,Gust SpeedMPH,PrecipitationIn,Events,Conditions,WindDirDegrees,DateUTC
12:53 AM,79.0,64.9,62,29.90,8.0,Calm,Calm,-,N/A,,Clear,0,2013-02-27 05:53:00
1:53 AM,77.0,64.9,66,29.91,8.0,Calm,Calm,-,N/A,,Clear,0,2013-02-27 06:53:00
2:35 AM,78.8,64.4,61,29.89,7.0,West,3.5,-,N/A,,Mostly Cloudy,260,2013-02-27 07:35:00
2:46 AM,80.6,66.2,61,29.89,7.0,Calm,Calm,-,N/A,,Partly Cloudy,0,2013-02-27 07:46:00
2:53 AM,75.9,66.0,71,29.88,7.0,Calm,Calm,-,N/A,,Scattered Clouds,0,2013-02-27 07:53:00
3:09 AM,75.2,66.2,73,29.88,7.0,Calm,Calm,-,N/A,,Mostly Cloudy,0,2013-02-27 08:09:00
3:40 AM,82.4,66.2,58,29.88,7.0,Calm,Calm,-,N/A,,Scattered Clouds,0,2013-02-27 08:40:00
3:53 AM,80.1,66.0,62,29.88,7.0,West,3.5,-,N/A,,Mostly Cloudy,270,2013-02-27 08:53:00
4:28 AM,84.2,64.4,51,29.90,8.0,NW,6.9,-,N/A,,Overcast,310,2013-02-27 09:28:00
4:53 AM,79.0,64.0,60,29.91,8.0,NNW,8.1,-,N/A,,Overcast,330,2013-02-27 09:53:00
5:53 AM,80.1,63.0,56,29.91,8.0,NW,3.5,-,N/A,,Mostly Cloudy,320,2013-02-27 10:53:00
6:53 AM,68.0,64.0,87,29.93,7.0,NE,3.5,-,N/A,,Overcast,40,2013-02-27 11:53:00
7:53 AM,69.1,64.0,84,29.94,6.0,NNE,4.6,-,N/A,,Haze,20,2013-02-27 12:53:00
8:53 AM,71.1,64.0,78,29.96,7.0,Variable,4.6,-,N/A,,Mostly Cloudy,0,2013-02-27 13:53:00
9:53 AM,71.1,63.0,75,29.98,8.0,NNW,5.8,-,N/A,,Mostly Cloudy,340,2013-02-27 14:53:00
10:53 AM,72.0,62.1,71,29.99,8.0,North,3.5,-,N/A,,Overcast,360,2013-02-27 15:53:00
11:53 AM,71.1,61.0,70,29.98,9.0,Calm,Calm,-,N/A,,Overcast,0,2013-02-27 16:53:00
12:53 PM,72.0,55.9,57,29.96,10.0,Calm,Calm,-,N/A,,Overcast,0,2013-02-27 17:53:00
1:53 PM,68.0,62.1,81,29.95,8.0,West,3.5,-,0.00,,Overcast,280,2013-02-27 18:53:00
2:02 PM,69.8,60.8,73,29.95,10.0,West,4.6,-,N/A,,Overcast,280,2013-02-27 19:02:00
2:26 PM,66.2,59.0,78,29.96,2.5,West,5.8,-,0.00,Rain,Light Rain,260,2013-02-27 19:26:00
2:53 PM,66.9,63.0,87,29.95,7.0,Calm,Calm,-,0.07,,Overcast,0,2013-02-27 19:53:00
3:36 PM,66.2,62.6,88,29.94,9.0,Calm,Calm,-,N/A,,Overcast,0,2013-02-27 20:36:00
3:53 PM,68.0,61.0,78,29.94,10.0,Calm,Calm,-,N/A,,Overcast,0,2013-02-27 20:53:00
4:53 PM,68.0,60.1,76,29.93,10.0,Variable,3.5,-,N/A,,Overcast,0,2013-02-27 21:53:00
5:53 PM,69.1,60.1,73,29.94,10.0,West,3.5,-,N/A,,Overcast,280,2013-02-27 22:53:00
6:53 PM,68.0,62.1,81,29.95,10.0,WSW,3.5,-,N/A,,Overcast,240,2013-02-27 23:53:00
7:53 PM,68.0,62.1,81,29.96,10.0,WNW,6.9,-,N/A,,Mostly Cloudy,290,2013-02-28 00:53:00
8:53 PM,68.0,62.1,81,29.96,10.0,NNW,3.5,-,N/A,,Overcast,330,2013-02-28 01:53:00
9:53 PM,68.0,61.0,78,29.99,10.0,NW,3.5,-,N/A,,Mostly Cloudy,320,2013-02-28 02:53:00
10:05 PM,68.0,60.8,78,29.99,10.0,NNW,5.8,-,N/A,,Overcast,330,2013-02-28 03:05:00
10:18 PM,68.0,60.8,78,29.99,10.0,NNW,3.5,-,N/A,,Overcast,340,2013-02-28 03:18:00
10:53 PM,66.9,60.1,79,29.99,10.0,NNW,5.8,-,N/A,,Overcast,330,2013-02-28 03:53:00
11:53 PM,66.9,60.1,79,29.98,10.0,Calm,Calm,-,N/A,,Overcast,0,2013-02-28 04:53:00